#timestamp,LO_Frequency,Hit,StdDev 
1593090015.9,286046995.7,N
1593090035.7,286046995.2,N
1593090055.6,286046996.0,N
1593090075.4,286046995.8,N
1593090095.2,286046997.4,N
1593090115.1,286046995.8,N
1593090116.0,286046995.8,N
1593090135.8,286046996.1,N
1593090155.7,286046996.7,N
1593090175.5,286046996.6,N
1593090195.3,286046999.6,N
1593090215.2,286046997.1,N
1593090235.0,286046996.9,N
1593090235.9,286046996.9,N
1593090255.8,286046998.6,N
1593090275.6,286046996.6,N
1593090295.4,286046999.2,N
1593090315.3,286046999.5,N
1593090335.1,286046999.5,N
1593090355.9,286046999.4,N
1593090375.7,286046998.9,N
1593090395.5,286046999.3,N
1593090415.4,286046996.9,N
1593090435.2,286046998.3,N
1593090455.0,286046999.5,N
1593090455.9,286046999.5,N
1593090475.8,286046996.7,N
1593090495.6,286046999.2,N
1593090515.5,286046996.6,N
1593090535.3,286046998.3,N
1593090555.1,286046999.5,N
1593090575.9,286046999.0,N
1593090595.7,286046996.6,N
1593090615.6,286046996.5,N
1593090635.4,286046999.2,N
1593090655.2,286046999.4,N
1593090675.1,286046998.4,N
1593090676.0,286046998.4,N
1593090695.8,286046999.3,N
1593090715.7,286046998.1,N
1593090735.5,286046999.3,N
1593090755.3,286046997.0,N
1593090775.2,286046997.1,N
1593090795.0,286046996.7,N
1593090795.9,286046996.7,N
1593090815.7,286046997.2,N
1593090835.6,286046997.8,N
1593090855.4,286046997.6,N
1593090875.3,286046999.1,N
1593090895.1,286046997.4,N
1593090915.8,286046998.0,N
1593090935.7,286046997.3,N
1593090955.5,286046997.0,N
1593090975.4,286046996.6,Y
1593090995.2,286047001.2,P
1593091015.0,286046998.3,N
1593091015.9,286046998.3,N
1593091035.8,286047000.7,N
1593091055.6,286047000.9,N
1593091075.5,286047001.0,N
1593091095.3,286046998.6,N
1593091115.1,286046998.6,N
1593091135.9,286046998.4,N
1593091155.7,286047001.0,N
1593091175.5,286046998.5,N
1593091195.4,286047000.2,N
1593091215.2,286047000.6,N
1593091235.1,286047002.3,N
1593091236.0,286047002.3,N
1593091255.8,286047000.3,N
1593091275.6,286046999.7,N
1593091295.5,286047002.7,N
1593091315.3,286047002.7,N
1593091335.1,286047000.0,N
1593091355.9,286047000.3,N
1593091375.7,286047002.5,N
1593091395.6,286046999.9,N
1593091415.4,286046999.8,N
1593091435.2,286047000.1,N
1593091455.1,286046999.8,N
1593091456.0,286046999.8,N
1593091475.8,286047001.1,N
1593091495.7,286047001.2,N
1593091515.5,286047000.7,N
1593091535.3,286047000.8,N
1593091555.2,286047000.5,N
1593091575.0,286047000.6,N
1593091575.9,286047000.6,N
1593091595.7,286047000.9,N
1593091615.6,286047002.3,N
1593091635.4,286047002.6,N
1593091655.3,286047000.2,N
1593091675.1,286047001.1,N
1593091695.9,286046998.2,N
1593091715.7,286047000.0,N
1593091735.5,286047000.6,N
1593091755.4,286046999.0,N
1593091775.2,286047000.1,N
1593091795.0,286047002.8,N
1593091795.9,286047002.8,N
1593091815.8,286047002.5,N
1593091835.6,286047000.2,N
1593091855.5,286047000.9,N
1593091875.3,286047000.4,N
1593091895.1,286047000.6,N
1593091915.9,286047002.6,N
1593091935.7,286047001.0,N
1593091955.6,286046999.0,N
1593091975.4,286046998.6,N
1593091995.2,286046998.3,N
1593092015.1,286047001.0,N
1593092016.0,286047001.0,N
1593092035.8,286047000.3,N
1593092055.7,286047000.8,N
1593092075.5,286047000.3,N
1593092095.3,286047000.5,N
1593092115.2,286046998.5,N
1593092135.0,286047000.5,N
1593092135.9,286047000.5,N
1593092155.8,286047002.4,N
1593092175.6,286047002.3,N
1593092195.4,286047004.0,Y
1593092215.3,286047002.1,P
1593092235.1,286047001.9,N
1593092255.9,286047001.4,N
1593092275.7,286047001.5,N
1593092295.5,286047001.4,N
1593092315.4,286047002.2,Y
1593092335.2,286046999.4,P
1593092355.1,286046996.7,P
1593092356.0,286046996.7,N
1593092375.8,286046999.3,N
1593092395.6,286047000.8,N
1593092415.5,286047000.6,N
1593092435.3,286047000.4,N
1593092455.2,286047001.1,N
1593092475.9,286047000.7,N
1593092495.7,286046998.8,N
1593092515.6,286046998.2,N
1593092535.4,286046998.2,N
1593092555.3,286046998.8,N
1593092575.1,286046999.0,N
1593092595.9,286046999.1,N
1593092615.7,286047000.9,N
1593092635.5,286047000.7,N
1593092655.4,286047000.9,N
1593092675.2,286047002.8,N
1593092695.1,286047000.2,N
1593092696.0,286047000.2,N
1593092715.8,286047000.0,N
1593092735.6,286047001.5,N
1593092755.5,286047002.0,N
1593092775.3,286047002.7,N
1593092795.2,286046999.8,N
1593092815.9,286047000.9,N
1593092835.7,286046999.8,N
1593092855.6,286047000.8,N
1593092875.4,286047000.9,N
1593092895.3,286046998.3,N
1593092915.1,286046998.5,N
1593092916.0,286046998.5,N
1593092935.8,286046998.4,N
1593092955.7,286046998.7,N
1593092975.5,286047000.0,N
1593092995.4,286047001.2,N
1593093015.2,286046998.1,N
1593093035.0,286047001.0,N
1593093035.9,286047001.0,N
1593093055.8,286046998.4,N
1593093075.6,286046998.6,N
1593093095.5,286047001.0,N
1593093115.3,286046998.3,N
1593093135.1,286046998.2,N
1593093155.9,286047000.8,N
1593093175.7,286046998.8,N
1593093195.5,286046998.6,N
1593093215.4,286047001.2,N
1593093235.2,286047000.5,N
1593093255.1,286046999.0,N
1593093256.0,286046999.0,N
1593093275.8,286046998.9,N
1593093295.6,286046999.6,N
1593093315.5,286046998.8,N
1593093335.3,286046999.0,N
1593093355.2,286046998.9,N
1593093375.9,286046999.2,N
1593093395.7,286046999.3,N
1593093415.6,286046996.8,Y
1593093435.4,286046996.7,P
1593093455.3,286046996.9,N
1593093475.1,286046998.2,N
1593093495.8,286047001.0,N
1593093515.7,286046998.1,N
1593093535.5,286046998.2,N
1593093555.4,286047000.3,N
1593093575.2,286046999.0,N
1593093595.0,286046999.3,N
1593093595.9,286046999.3,N
